{"data":{"norad_id":64686,"epoch":"2026-05-25T05:30:01.552032Z","epoch_age_seconds":61997,"freshness":"FRESH","line1":"1 64686U 25139Y   26145.22918463  .00013245  00000+0  40246-3 0  9996","line2":"2 64686  53.1592 130.7389 0000284  32.5787 327.5233 15.34397336 52011","mean_motion":15.34397336,"eccentricity":2.84e-5,"inclination_deg":53.1592,"raan_deg":130.7389,"arg_perigee_deg":32.5787,"mean_anomaly_deg":327.5233,"bstar":0.00040246,"rev_number":5201,"period_min":93.847921018549,"perigee_km":462.51687810028,"apogee_km":462.90543827567,"semimajor_km":6840.848158188,"source":"CELESTRAK","updated_at":"2026-05-25T13:38:20.508191Z"}}